Regional Weather Roundup
Issued by NWS

Home | Current Version | Previous Version | Graphics & Text | Print | Product List | Glossary On
Versions: 1 2 3 4 5 6 7 8 9 10 11 12 13 14 15 16 17 18 19 20 21 22 23 24 25 26 27 28 29 30 31 32 33 34 35 36 37 38 39 40 41 42 43 44 45 46 47 48 49 50
107
ASUS43 KMKX 241220
RWRWI

WISCONSIN REGIONAL WEATHER ROUNDUP
NATIONAL WEATHER SERVICE MILWAUKEE/SULLIVAN WI
600 AM CST FRI NOV 24 2017

NOTE: "FAIR" INDICATES FEW OR NO CLOUDS BELOW 12,000 FEET WITH NO
SIGNIFICANT WEATHER AND/OR OBSTRUCTIONS TO VISIBILITY.

WIZ001-002-006>008-014>016-023>028-241300-
NORTHWEST WISCONSIN

CITY           SKY/WX    TMP DP  RH WIND       PRES   REMARKS
SUPERIOR ARPT  CLOUDY    42  34  75 SW5       29.30S
6HR MIN TEMP:  39; 6HR MAX TEMP:  43;

ASHLAND        MOCLDY    44  32  62 S14G22    29.31F
6HR MIN TEMP:  42; 6HR MAX TEMP:  45;

HAYWARD        PTCLDY    40  32  73 SW7       29.38F
6HR MIN TEMP:  39; 6HR MAX TEMP:  43;

SIREN          CLEAR     44  35  71 SE6       29.36F
6HR MIN TEMP:  43; 6HR MAX TEMP:  47;

CUMBERLAND     CLEAR     39  32  75 SW5       29.39F
RICE LAKE      CLEAR     42  34  75 S8        29.41F
6HR MIN TEMP:  35; 6HR MAX TEMP:  42;

CHETEK         CLEAR     42  35  75 S7        29.41F
6HR MIN TEMP:  34; 6HR MAX TEMP:  42;

LADYSMITH      CLEAR     38  32  78 SE5       29.42F WCI  34
6HR MIN TEMP:  37; 6HR MAX TEMP:  40;

EAU CLAIRE     PTCLDY    43  34  70 S8        29.44F
6HR MIN TEMP:  33; 6HR MAX TEMP:  45;

MENOMONIE      CLOUDY    42  34  73 SE8       29.44F
6HR MIN TEMP:  42; 6HR MAX TEMP:  45;

NEW RICHMOND   CLEAR     43  35  72 S9        29.40F
6HR MIN TEMP:  42; 6HR MAX TEMP:  44;

OSCEOLA        CLEAR     45  36  71 S6        29.41F
$$

WIZ003>005-009-010-017-018-241300-
NORTH CENTRAL WISCONSIN

CITY           SKY/WX    TMP DP  RH WIND       PRES   REMARKS
MANITOWISH WTR PTCLDY    38  32  79 S7        29.39F WCI  33
6HR MIN TEMP:  34; 6HR MAX TEMP:  40;

ARBOR VITAE    CLEAR     39  32  75 S9        29.40F WCI  33
6HR MIN TEMP:  37; 6HR MAX TEMP:  39;

WOODRUFF       CLEAR     39  32  75 S9        29.40F WCI  33
6HR MIN TEMP:  37; 6HR MAX TEMP:  39;

RHINELANDER    CLEAR     38  30  73 SW13      29.44F WCI  30
6HR MIN TEMP:  36; 6HR MAX TEMP:  39;

EAGLE RIVER    CLEAR     38  29  69 SW7       29.40F WCI  33
6HR MIN TEMP:  36; 6HR MAX TEMP:  40;

LAND O LAKES   CLOUDY    39  30  72 SW7       29.40F WCI  34
6HR MIN TEMP:  35; 6HR MAX TEMP:  41;

PHILLIPS       CLEAR     42  34  71 SW10G21   29.40F
6HR MIN TEMP:  36; 6HR MAX TEMP:  42;

TOMAHAWK       CLOUDY    38  30  72 S3        29.45F
6HR MIN TEMP:  33; 6HR MAX TEMP:  38;

MEDFORD        CLEAR     40  32  72 S9        29.45F WCI  34
6HR MIN TEMP:  35; 6HR MAX TEMP:  40;

MERRILL        CLOUDY    39  30  71 SW3       29.47F
6HR MIN TEMP:  37; 6HR MAX TEMP:  40;

$$

WIZ029-030-035-036-043>047-241300-
CENTRAL WISCONSIN

CITY           SKY/WX    TMP DP  RH WIND       PRES   REMARKS
WAUSAU         CLOUDY    40  30  67 SE6       29.48F
6HR MIN TEMP:  34; 6HR MAX TEMP:  40;

MOSINEE        PTCLDY    41  30  65 S14       29.50F
MARSHFIELD     CLOUDY    42  31  64 S12       29.48F
6HR MIN TEMP:  35; 6HR MAX TEMP:  42;

STEVENS POINT  CLOUDY    41  30  66 S12       29.52F
6HR MIN TEMP:  32; 6HR MAX TEMP:  41;

WAUPACA        PTCLDY    44  31  59 S8        29.55F
6HR MIN TEMP:  34; 6HR MAX TEMP:  44;

WAUTOMA        PTCLDY    39  29  67 S7        29.58F WCI  34
6HR MIN TEMP:  31; 6HR MAX TEMP:  40;

WISC RAPIDS    CLEAR     44  32  62 SW14      29.54F
6HR MIN TEMP:  35; 6HR MAX TEMP:  44;

CAMP DOUGLAS   PTCLDY    45  33  62 SE5       29.54F
6HR MIN TEMP:  40; 6HR MAX TEMP:  47;

$$

WIZ011>013-019>022-031-037>040-048>050-241300-
NORTHEAST WISCONSIN

CITY           SKY/WX    TMP DP  RH WIND       PRES   REMARKS
ANTIGO         PTCLDY    38  30  72 SW9       29.48F WCI  32
6HR MIN TEMP:  34; 6HR MAX TEMP:  39;

SHAWANO        CLOUDY    43  30  61 SW7       29.51F
6HR MIN TEMP:  37; 6HR MAX TEMP:  42;

OCONTO         PTCLDY    43  30  61 SW12G18   29.52F
STURGEON BAY   CLOUDY    40  29  64 S10       29.53F WCI  33
6HR MIN TEMP:  35; 6HR MAX TEMP:  40; 6HR PCP: TRACE;

GREEN BAY      PTCLDY    41  32  70 SW12      29.55F
6HR MIN TEMP:  36; 6HR MAX TEMP:  41;

MANITOWOC      PTCLDY    40  30  67 S9        29.59F WCI  34
6HR MIN TEMP:  33; 6HR MAX TEMP:  40; 6HR PCP: TRACE;

APPLETON       MOCLDY    39  27  60 SW18G24   29.55F WCI  30
CLINTONVILLE   PTCLDY    43  28  56 SW9       29.53F
OSHKOSH        MOCLDY    41  30  65 SW20      29.57F
6HR MIN TEMP:  34; 6HR MAX TEMP:  42;

$$

WIZ032>034-041-042-053>061-241300-
SOUTHWEST WISCONSIN

CITY           SKY/WX    TMP DP  RH WIND       PRES   REMARKS
LA CROSSE      CLEAR     45  34  65 S13       29.53F
6HR MIN TEMP:  41; 6HR MAX TEMP:  45;

SPARTA         CLEAR     45  35  68 S7        29.55F
6HR MIN TEMP:  40; 6HR MAX TEMP:  46;

VIROQUA        CLEAR     41  34  76 S5        29.56F
6HR MIN TEMP:  38; 6HR MAX TEMP:  44;

BOSCOBEL       CLEAR     38  31  76 SW6       29.61F WCI  33
6HR MIN TEMP:  26; 6HR MAX TEMP:  40;

PRAIRIE DU CHI CLEAR     46  32  59 NE3       29.59F
6HR MIN TEMP:  32; 6HR MAX TEMP:  46;

PLATTEVILLE    CLEAR     37  32  84 S12       29.64F WCI  29
6HR MIN TEMP:  34; 6HR MAX TEMP:  37;

$$

WIZ056-057-062-063-064-067-068-241300-
SOUTH CENTRAL WISCONSIN

CITY           SKY/WX    TMP DP  RH WIND       PRES   REMARKS
REEDSBURG      CLEAR     42  32  67 SW8       29.58F
6HR MIN TEMP:  37; 6HR MAX TEMP:  42;

BARABOO/DELLS  CLEAR     45  31  57 SW18G28   29.58F
6HR MIN TEMP:  37; 6HR MAX TEMP:  45;

LONE ROCK      NOT AVBL
MINERAL POINT  CLEAR     41  32  70 S12       29.63F
MADISON        PTCLDY    39  30  70 S9G21     29.65F WCI  33
6HR MIN TEMP:  33; 6HR MAX TEMP:  40;

MIDDLETON      CLEAR     41  31  68 S7        29.64F
6HR MIN TEMP:  36; 6HR MAX TEMP:  42;

WATERTOWN      CLEAR     38  31  75 S12G17    29.66F WCI  31
6HR MIN TEMP:  32; 6HR MAX TEMP:  38;

MONROE         CLEAR     36  30  80 S18G24    29.66F WCI  25
JANESVILLE     CLOUDY    37  30  75 S7        29.69F WCI  32
$$

WIZ051-052-058>065-066-070>072-241300-
SOUTHEAST WISCONSIN

CITY           SKY/WX    TMP DP  RH WIND       PRES   REMARKS
MILWAUKEE      CLOUDY    42  30  62 SW16      29.69F
6HR MIN TEMP:  35; 6HR MAX TEMP:  42;

WAUKESHA       CLEAR     39  28  65 SW12G17   29.69F WCI  32
MILWAUKEE/TIMM CLOUDY    41  28  60 SW13G18   29.69F
RACINE         PTCLDY    39  29  67 SW12      29.72F WCI  32
6HR MIN TEMP:  34; 6HR MAX TEMP:  39;

BURLINGTON     CLEAR     42  35  76 SW16      29.70F
6HR MIN TEMP:  30; 6HR MAX TEMP:  42;

KENOSHA        PTCLDY    39  28  64 SW12      29.71F WCI  32
6HR MIN TEMP:  32; 6HR MAX TEMP:  39;

FOND DU LAC    PTCLDY    42  28  57 SW20G30   29.60F
6HR MIN TEMP:  36; 6HR MAX TEMP:  42;

SHEBOYGAN      CLOUDY    44  32  62 S15       29.62F
6HR MIN TEMP:  31; 6HR MAX TEMP:  44;

WEST BEND      MOCLDY    43  32  65 SW10      29.64F
JUNEAU         CLOUDY    37  29  74 S13       29.66F WCI  28
6HR MIN TEMP:  32; 6HR MAX TEMP:  37;

$$

LSZ147-162-241300-
LAKE SUPERIOR

STATION/POSITION TIME  TEMP    WIND        PRES    WAVE
                       AIR SEA DIR/SP/G            HT/PER
                 (UTC) (F)     (DEG/KT/KT) (MB)    (FT/S)
DEVILS ISLAND    1200   43     230/ 17/ 19  991.4F
SAXON HARBOR     1140   48     190/ 11/ 17  992.2F
$$

LMZ867-665-643>646-241300-
LAKE MICHIGAN

STATION/POSITION TIME  TEMP    WIND        PRES    WAVE
                       AIR SEA DIR/SP/G            HT/PER
                 (UTC) (F)     (DEG/KT/KT) (MB)    (FT/S)
N MID LAKE BUOY  1150   46 47  200/ 27/ 33  999.6F   9/ 7
NORTHPORT PIER   1140   41     170/  8/ 17  999.0F
KEWAUNEE LAKESHO 1154   40     180/ 14/ 15 1000.6F
SHEB



USA.gov is the U.S. government's official web portal to all federal, state and local government web resources and services.